Lapse_Rate
6.4 6.2 6.2 6.0 5.8 5.5 5.7 5.8 5.8 5.7 6.1 6.2 6.2 6.2 6.1 5.7 6.2 6.3 6.1 6.0 6.2 6.5 6.6 6.5 6.8 7.0 6.9 6.6 6.3 6.3 6.3 6.5 6.6 6.7 6.7 6.4 6.1 6.1 6.1 6.0 5.9 5.8 6.1
6.1 6.2 6.4 6.3 6.1 5.8 5.9 6.4 6.3 6.4 6.5 6.8 6.7 6.4 5.9 5.9 6.2 6.2 6.2 6.0 6.1 6.2 6.2 6.6 6.8 7.0 7.1 6.9 6.7 6.7 6.5 6.2 6.2 6.3 6.5 6.8 6.6 6.2 6.2 6.1 5.8 5.7 5.7
6.2 6.4 6.5 6.2 6.1 6.4 6.6 6.7 6.6 6.5 6.8 6.8 6.8 6.7 6.7 6.6 6.7 6.6 6.3 6.0 6.1 6.2 6.3 6.2 6.3 6.8 7.0 7.2 7.2 6.9 6.8 6.6 6.4 6.0 6.0 6.3 6.6 6.6 6.2 6.2 6.1 5.8 5.6
6.4 6.4 6.3 6.3 6.4 6.3 6.5 6.7 6.9 7.0 7.1 6.9 6.9 7.1 6.8 6.9 7.1 7.0 6.6 6.4 6.2 6.0 5.7 5.5 5.8 5.8 6.0 6.4 7.0 7.0 6.3 6.6 6.6 6.5 6.0 6.0 6.2 6.4 6.5 6.1 6.1 6.2 5.9
6.1 6.3 6.4 6.4 6.4 6.5 6.5 6.5 6.6 6.8 6.7 6.9 7.0 7.0 6.9 6.9 7.1 7.1 7.0 6.9 6.4 5.8 5.8 5.5 5.6 5.3 5.4 5.6 5.3 5.7 5.9 5.8 5.4 5.6 5.9 6.2 6.0 5.7 5.8 6.0 5.8 5.8 6.0
6.0 6.1 6.2 6.4 6.5 6.4 6.6 6.6 6.6 6.6 6.6 6.8 6.9 7.0 7.1 7.0 7.2 7.1 7.2 6.7 6.2 5.5 5.1 5.2 5.1 4.9 4.7 4.5 4.2 4.1 3.8 3.6 4.5 4.7 4.7 5.0 5.5 5.7 5.2 5.4 5.6 5.4 5.5
6.1 6.0 6.0 6.2 6.2 6.4 6.4 6.5 6.6 6.5 6.6 6.7 6.8 7.0 7.2 7.2 7.1 7.1 7.0 6.7 6.0 5.3 4.5 4.2 3.9 3.8 3.8 3.8 3.7 3.6 3.7 3.8 3.5 3.2 3.3 3.6 3.9 4.5 5.1 4.7 4.9 5.3 4.9
6.0 6.1 6.2 6.3 6.4 6.3 6.3 6.4 6.5 6.5 6.5 6.7 6.9 7.0 7.2 7.4 7.3 6.8 6.3 5.8 5.5 5.1 4.8 4.5 4.3 4.0 3.7 3.3 2.9 2.7 2.8 2.7 2.8 3.0 2.8 2.6 2.8 3.1 3.3 4.2 4.6 4.5 4.9
6.1 5.9 5.9 6.1 6.2 6.3 6.4 6.6 6.5 6.6 6.6 6.7 6.8 6.7 6.6 6.7 6.6 6.3 5.8 5.4 5.3 5.0 4.7 4.5 4.4 4.0 3.5 3.1 2.9 3.0 2.7 2.8 2.9 3.0 3.1 2.8 2.6 2.6 2.7 2.9 3.3 4.1 4.3
6.0 5.8 5.7 5.8 6.2 6.2 6.2 6.3 6.4 6.5 6.6 6.6 6.5 6.3 6.1 6.0 5.9 5.8 5.2 4.8 4.3 3.9 4.0 3.8 3.8 4.2 4.3 4.3 4.1 3.8 3.7 3.6 3.6 3.7 3.7 3.7 3.4 2.9 2.7 2.8 2.9 3.2 3.7
5.5 5.6 5.8 5.9 6.0 6.0 6.2 6.2 6.3 6.3 6.4 6.3 6.3 6.1 5.6 5.4 5.1 4.8 4.7 4.2 3.9 3.8 3.6 3.8 4.4 4.7 5.0 5.2 5.3 5.1 4.9 4.8 5.1 5.1 4.9 4.8 4.7 4.1 3.2 3.0 2.8 3.1 3.1
5.5 5.8 6.1 6.2 6.1 6.0 6.3 6.1 6.2 6.2 6.0 5.9 5.7 5.3 5.1 4.7 4.2 4.1 3.9 3.9 3.8 3.9 4.2 5.0 5.2 5.4 5.5 5.6 5.7 6.0 6.3 6.5 6.4 5.9 5.8 5.9 5.8 5.4 4.9 4.1 3.7 3.5 3.3
5.9 6.2 6.3 6.2 6.1 6.1 6.3 6.1 6.1 5.9 5.9 5.8 5.6 5.3 5.1 4.4 3.9 3.6 3.8 3.8 3.8 4.6 4.9 5.8 6.2 6.3 6.2 6.2 6.0 6.5 7.3 7.3 6.9 6.6 6.4 6.5 6.4 6.2 5.9 5.7 5.2 4.7 4.4
6.1 6.2 6.2 6.2 6.1 6.1 6.1 6.0 5.9 5.8 5.7 5.5 5.2 4.9 4.1 3.9 3.7 3.8 3.6 3.6 4.3 4.8 5.6 6.5 7.0 6.8 6.6 6.5 6.7 7.1 7.1 6.8 6.8 6.8 6.6 6.4 6.2 6.1 6.0 6.1 6.2 5.8 5.6
6.0 6.2 6.3 6.1 5.9 6.0 5.9 5.9 5.7 5.5 5.3 4.9 4.4 4.1 4.0 3.9 3.7 3.5 3.7 4.1 4.6 4.9 5.7 6.4 6.8 6.8 6.5 6.7 6.9 6.9 6.7 6.8 6.7 6.7 6.5 6.2 6.1 6.1 6.1 6.1 6.0 6.0 6.2
5.8 6.1 5.9 5.8 5.7 5.9 5.8 5.6 5.6 5.3 5.0 4.6 4.3 4.2 4.3 4.0 3.6 3.8 4.4 5.4 5.6 6.0 5.7 6.1 6.7 6.6 6.6 6.5 6.5 6.4 6.4 6.4 6.5 6.4 6.4 6.4 6.2 6.1 6.3 6.2 6.1 6.1 6.1
5.8 5.6 5.5 5.5 5.4 5.3 5.2 5.3 5.4 4.9 4.7 4.4 4.4 4.4 4.3 3.9 3.9 4.3 5.3 5.8 5.9 6.1 5.7 5.9 6.5 6.5 6.2 6.2 6.3 6.2 6.2 6.3 6.2 6.3 6.3 6.3 6.3 6.5 6.5 6.4 6.3 6.4 6.4
5.3 5.4 5.1 4.8 5.0 5.1 5.0 5.0 4.7 4.5 4.3 4.4 4.4 3.9 3.9 3.7 4.0 4.9 5.9 6.2 5.9 6.0 5.8 5.7 6.4 6.3 6.2 6.2 6.2 6.2 6.3 6.3 6.3 6.4 6.4 6.4 6.4 6.4 6.6 6.5 6.2 6.3 6.4
4.7 4.7 4.6 4.9 5.1 5.4 5.1 4.8 4.8 4.4 4.7 4.4 3.9 3.9 3.7 4.0 4.7 6.0 6.6 6.3 6.4 6.3 6.1 5.9 6.1 6.1 6.1 6.0 6.2 6.3 6.3 6.5 6.5 6.4 6.3 6.1 5.7 5.9 6.0 6.3 6.1 6.2 6.5
3.9 4.0 4.4 4.8 4.9 5.1 5.2 4.7 4.4 4.4 4.2 4.0 4.0 4.0 4.3 5.0 5.8 6.7 6.8 6.5 6.3 6.1 6.0 5.9 5.9 6.0 6.0 6.0 6.2 6.3 6.6 6.5 6.4 6.1 5.8 5.6 5.3 5.5 5.7 5.7 5.8 6.0 6.3
3.5 3.7 4.5 4.4 4.7 5.2 4.9 4.6 4.8 4.6 4.0 4.3 4.5 4.8 5.2 5.8 6.5 6.7 6.6 6.4 6.4 6.2 6.0 5.9 6.1 6.1 6.0 6.1 6.4 6.6 6.5 6.2 6.4 5.7 5.2 5.4 4.8 5.1 5.4 5.4 5.6 5.9 6.3
3.8 4.0 4.3 4.2 4.7 4.8 4.8 5.1 4.7 4.2 4.5 4.9 5.3 5.4 5.7 6.3 6.6 6.5 6.6 6.6 6.3 5.9 5.9 5.7 6.0 6.0 6.2 6.1 6.3 6.4 6.1 6.2 6.5 5.7 4.7 5.6 4.6 5.1 5.3 5.6 5.8 6.1 6.0
4.3 4.2 4.1 4.8 5.2 5.4 5.3 5.0 4.7 4.8 5.1 5.4 5.7 5.9 6.4 6.8 6.7 6.5 6.5 6.3 5.9 5.6 5.5 5.5 5.9 5.8 6.0 6.1 6.3 6.2 5.8 5.7 5.4 5.4 5.3 5.7 5.0 6.0 6.4 6.7 7.1 6.6 6.7
4.2 4.3 4.6 5.3 5.7 5.4 5.0 5.0 5.1 5.2 5.6 5.9 6.1 6.4 6.7 6.9 6.8 6.7 6.7 6.4 6.1 5.8 5.6 5.7 5.7 5.9 6.0 6.2 6.0 5.9 5.7 5.8 5.2 4.9 5.2 6.3 6.4 6.8 7.0 7.4 7.5 7.8 7.8
4.3 4.8 5.5 5.5 5.5 5.1 5.5 5.9 5.8 5.8 5.9 6.3 6.5 6.7 6.9 6.9 6.9 6.9 6.6 6.5 6.4 6.0 5.9 5.9 5.9 5.9 6.1 6.0 5.9 5.9 5.7 5.3 5.4 5.3 5.4 6.8 6.9 7.3 7.7 7.9 7.9 8.1 8.3
5.4 5.6 5.6 5.4 5.8 6.1 6.0 6.1 6.1 6.3 6.2 6.5 6.9 7.0 7.1 7.0 7.0 6.8 6.7 6.6 6.5 6.3 6.2 6.2 6.2 6.0 6.2 6.1 5.9 5.9 5.6 5.6 5.6 6.2 6.1 6.8 6.8 7.0 7.6 8.0 8.0 8.1 8.2
Wind_Speed
8 10 12 14 12 11 12 12 12 12 13 14 16 15 14 13 12 11 3 5 7 9 9 9 10 10 12 13 15 18 20 20 20 20 20 21 24 22 21 22 22 23 19
10 11 9 7 8 10 9 10 9 9 9 12 11 14 14 14 16 17 3 7 6 11 11 10 9 8 9 10 11 14 16 18 19 20 20 20 22 25 25 24 23 23 23
9 7 7 7 7 10 6 10 13 14 10 11 7 12 14 9 15 16 19 5 8 12 13 9 7 7 7 8 10 12 15 15 16 19 18 20 22 24 27 27 24 24 24
7 7 9 7 8 11 11 9 6 4 4 4 3 4 6 9 11 15 20 18 10 12 13 10 8 9 9 11 12 12 14 13 16 18 17 21 24 26 26 27 27 25 24
12 11 8 6 7 10 9 5 4 3 3 3 3 3 5 5 9 13 15 19 12 8 8 8 16 16 12 11 12 14 16 17 20 16 16 19 23 25 27 27 28 28 26
13 14 12 11 12 8 4 4 5 3 2 2 3 4 3 4 8 8 10 14 17 17 12 12 12 11 12 9 10 11 12 16 14 15 20 21 22 24 27 28 28 29 28
12 12 9 10 11 4 3 3 2 3 3 3 2 3 3 3 6 4 11 12 13 11 8 5 5 5 9 8 6 6 11 9 10 14 16 21 24 26 27 29 28 29 29
12 10 7 4 5 3 5 4 3 2 2 3 1 1 3 4 4 4 4 3 7 13 13 14 12 6 6 6 2 8 7 5 13 17 18 18 23 28 30 29 29 29 30
9 13 14 11 9 6 3 3 3 3 1 2 4 2 3 1 2 3 4 5 7 5 12 15 12 11 8 7 8 8 8 4 7 10 15 18 21 26 32 31 30 29 30
11 13 13 11 8 6 4 3 1 1 2 3 3 3 2 3 1 3 3 3 5 6 6 10 9 10 11 14 15 12 9 4 4 10 17 23 26 28 29 33 33 29 30
11 13 12 11 9 8 7 6 5 5 4 2 2 2 2 2 2 1 2 3 3 3 6 5 10 12 13 14 11 9 7 5 10 16 21 23 27 30 31 30 31 29 30
6 10 10 9 8 7 5 4 4 5 4 3 1 1 1 2 2 1 1 2 3 3 2 6 8 12 17 17 13 14 10 13 13 16 20 24 27 28 30 29 31 30 31
2 3 6 6 5 8 5 5 4 3 2 1 0 2 2 2 1 1 1 2 2 2 2 2 8 16 16 20 15 13 15 16 17 18 21 24 26 28 30 32 30 32 32
2 6 6 6 8 9 3 3 2 1 2 1 3 3 1 2 2 0 2 1 3 2 1 5 3 12 17 9 13 16 16 17 20 22 24 26 29 29 30 30 31 27 29
3 5 5 5 6 7 5 3 2 3 3 3 5 3 1 2 3 2 0 1 3 3 5 4 3 6 8 14 17 19 19 19 25 24 26 26 29 29 28 28 31 24 27
3 2 4 5 5 7 8 3 3 2 3 4 3 5 0 0 2 3 2 2 0 2 3 1 2 3 10 13 16 19 20 23 22 25 27 26 25 26 26 25 20 23 24
3 1 2 3 5 6 7 3 3 3 2 3 1 4 4 2 1 2 3 3 3 2 3 3 3 4 4 6 12 15 17 19 17 20 26 27 26 19 23 24 24 25 26
3 3 0 3 5 2 2 2 4 5 3 4 4 5 3 1 3 3 2 3 2 3 1 6 6 6 5 6 10 7 14 17 18 19 25 24 23 22 19 23 24 22 23
4 3 2 5 4 4 1 3 4 5 5 4 3 1 3 2 1 1 1 1 1 3 2 3 7 6 4 5 8 8 6 11 15 22 23 22 19 20 21 26 23 23 21
5 3 4 6 6 6 4 4 4 4 4 4 4 2 2 4 3 3 1 2 1 3 3 4 6 7 6 7 5 5 6 4 7 16 20 16 19 19 20 25 24 22 18
4 5 6 6 5 5 3 5 4 4 3 3 3 4 2 3 4 4 1 2 2 2 3 5 7 8 8 7 7 4 6 6 8 5 8 8 12 14 13 19 23 7 9
6 6 6 6 5 3 10 9 6 4 2 2 2 3 3 4 5 5 6 7 5 3 4 3 6 8 8 4 3 4 6 8 8 5 5 9 9 8 10 12 15 12 16
5 6 6 5 3 6 12 11 9 3 1 2 1 1 3 4 5 3 3 7 10 13 12 7 7 4 7 6 4 8 8 7 8 9 7 9 5 8 11 15 18 19 16
6 5 5 6 5 5 13 12 9 4 2 2 1 1 2 4 3 2 2 4 5 5 6 5 5 7 7 9 6 7 10 9 8 9 4 6 5 7 7 15 21 17 16
5 4 5 5 6 4 9 10 6 3 1 3 2 3 3 3 5 1 1 4 5 6 11 14 18 19 21 21 19 7 6 6 6 8 3 3 3 3 7 5 12 11 13
5 4 3 4 7 7 11 12 8 3 3 2 1 2 3 5 3 3 3 4 5 7 6 7 8 14 15 14 16 7 6 7 7 6 2 2 4 2 4 2 3 6 2
Wind_Direction
78 55 48 58 50 49 42 35 28 26 41 37 29 25 13 360 12 21 204 163 133 117 110 97 84 72 64 51 35 22 13 9 7 5 5 3 357 1 359 357 353 353 323
82 80 75 62 51 37 38 62 48 52 33 31 16 10 351 5 18 8 2 235 156 125 118 111 96 82 66 60 48 29 12 1 1 360 360 4 357 351 353 353 348 345 342
99 102 86 69 49 32 64 51 52 38 34 22 11 344 342 7 14 8 9 42 156 136 132 128 88 78 58 43 45 25 6 357 358 352 351 354 353 347 342 342 341 338 333
116 91 95 70 44 32 56 64 45 31 29 25 348 336 1 354 17 7 3 347 195 167 153 137 100 80 48 36 20 12 10 6 349 341 352 350 346 343 340 334 332 331 328
76 101 105 74 47 55 57 42 25 57 11 360 340 358 340 350 4 22 31 21 48 159 178 159 93 74 49 33 15 4 5 342 342 340 353 341 338 337 336 333 328 325 322
72 74 58 53 58 46 30 21 29 2 9 328 350 352 353 343 10 41 14 16 31 22 29 55 43 60 41 25 16 1 348 331 333 336 335 334 333 333 330 328 327 321 318
77 72 59 54 43 53 34 36 34 13 323 359 52 354 321 348 356 25 25 17 17 29 27 36 65 74 91 81 47 344 325 348 337 326 326 326 327 327 326 322 321 319 313
87 86 85 75 50 39 23 15 17 335 322 26 44 2 355 335 15 4 23 30 21 17 13 3 19 77 89 89 15 333 320 283 309 311 309 315 319 321 320 318 314 316 311
92 76 73 64 44 38 5 341 349 74 348 327 48 107 3 328 324 355 315 8 14 15 12 6 26 24 6 337 331 324 301 344 359 329 317 313 312 315 315 314 309 312 309
91 91 84 66 46 23 0 324 317 225 130 55 15 28 87 180 17 350 350 358 358 356 344 352 352 353 6 20 9 29 43 54 352 314 312 313 313 311 309 308 302 306 308
79 74 61 47 27 7 345 338 344 65 74 98 82 352 353 351 34 104 298 316 337 328 323 342 349 352 351 351 342 331 316 297 320 317 314 313 313 312 307 300 298 300 303
78 67 55 47 19 354 0 51 69 65 69 72 61 332 183 207 251 215 267 281 261 280 306 325 334 329 328 321 305 318 336 351 345 328 319 314 309 307 305 302 298 297 299
64 46 55 34 5 347 102 77 64 49 35 14 285 267 261 230 181 210 205 285 282 289 282 293 310 308 306 311 323 355 351 342 334 321 314 309 306 301 298 296 294 290 292
99 58 43 18 3 360 255 138 103 320 297 313 259 277 293 293 313 246 198 142 325 292 297 278 277 293 299 6 355 345 341 331 319 312 310 306 301 298 295 292 293 287 287
73 44 22 16 355 349 325 243 150 282 316 283 258 247 280 296 332 301 65 140 151 289 302 296 294 321 15 350 345 336 329 314 309 309 305 304 301 301 300 301 289 278 287
74 29 16 10 335 317 313 233 218 273 252 282 219 176 296 105 265 306 319 321 284 265 296 320 307 316 340 337 328 320 305 311 307 302 300 300 302 306 307 296 285 280 287
129 76 22 332 303 303 330 7 308 285 306 315 258 177 197 221 1 340 353 29 39 12 302 305 316 317 313 306 311 315 316 309 299 314 311 307 311 311 313 291 276 273 280
168 150 194 293 293 191 334 343 293 287 301 92 85 74 84 350 314 40 77 43 33 311 355 318 307 318 303 300 305 305 306 317 309 308 313 320 317 316 312 308 293 282 286
176 170 265 281 263 220 288 316 57 50 53 81 103 105 272 285 103 158 68 20 343 346 324 306 308 308 297 302 307 305 308 314 319 320 311 312 319 323 321 315 295 286 283
168 203 256 266 263 224 182 129 99 63 35 18 341 338 355 130 184 211 229 259 309 322 303 291 296 297 300 302 296 308 313 312 313 317 312 309 323 320 321 330 318 302 274
210 226 245 254 271 211 148 143 131 118 73 8 8 16 51 233 208 182 25 304 286 278 279 285 290 294 295 300 303 315 306 305 303 294 308 318 315 311 308 331 318 297 298
264 251 256 247 263 178 161 149 148 132 79 355 341 345 343 44 97 57 55 24 343 301 274 259 290 291 298 297 285 284 301 307 310 278 318 302 296 302 302 310 293 309 284
282 264 250 257 232 167 170 152 148 144 161 281 293 6 316 97 109 117 12 353 333 321 315 306 300 313 310 299 283 300 294 289 285 289 295 298 296 291 301 300 287 279 271
287 261 264 265 169 186 174 162 149 146 210 285 207 268 277 165 176 128 22 326 301 299 299 300 309 290 277 287 262 276 284 283 280 285 269 282 288 289 303 292 283 291 249
296 289 268 273 155 150 165 155 145 160 164 272 287 305 306 173 185 58 354 305 294 290 304 310 314 312 312 310 308 305 299 286 287 290 264 253 276 282 299 275 271 297 243
286 301 296 143 175 169 180 176 172 163 191 224 297 12 96 152 183 313 266 262 282 286 287 302 304 309 307 304 316 318 320 311 291 289 255 207 302 294 311 290 293 326 225